K7OLI-13 Weather Reports


time (UTC)temp
C
wind
direction
speed
KPH
gust
KPH
rain 1hr
cm
rain 24hr
cm
rain mn
cm
humidity
%
barometer
mb
20260504202043 20 136 8.0 14.5 0.00 0.00 0.00 66
20260504201032 19 159 9.7 12.9 0.00 0.00 0.00 67
20260504200021 19 112 8.0 12.9 0.00 0.00 0.00 68
20260504195030 18 146 9.7 11.3 0.00 0.00 0.00 69
20260504194023 18 108 11.3 16.1 0.00 0.00 0.00 70
20260504193027 18 124 9.7 14.5 0.00 0.00 0.00 69
20260504192055 18 152 9.7 12.9 0.00 0.00 0.00 71
20260504191023 17 128 11.3 14.5 0.00 0.00 0.00 71
20260504190031 17 123 11.3 16.1 0.00 0.00 0.00 73
20260504185034 17 136 8.0 12.9 0.00 0.00 0.00 75
20260504184024 17 173 8.0 11.3 0.00 0.00 0.00 74
20260504183037 16 154 9.7 14.5 0.00 0.00 0.00 76
20260504182027 16 152 8.0 12.9 0.00 0.00 0.00 76
20260504181036 16 136 11.3 14.5 0.00 0.00 0.00 77
20260504180023 16 133 12.9 19.3 0.00 0.00 0.00 77
20260504175031 16 148 9.7 14.5 0.00 0.00 0.00 77
20260504174020 15 125 9.7 14.5 0.00 0.00 0.00 78
20260504173048 15 111 9.7 12.9 0.00 0.00 0.00 78
20260504172036 15 135 11.3 16.1 0.00 0.00 0.00 80
20260504171108 15 140 11.3 16.1 0.00 0.00 0.00 79
20260504004024 32 240 11.3 12.9 0.00 0.00 0.00 32 1003.3
20260504003032 32 258 9.7 16.1 0.00 0.00 0.00 31 1003.3
20260504002028 33 263 9.7 14.5 0.00 0.00 0.00 30 1003.3
20260504001049 32 311 8.0 12.9 0.00 0.00 0.00 29 1004.1
20260504000037 33 277 6.4 11.3 0.00 0.00 0.00 31 1004.3
20260503235026 32 308 6.4 9.7 0.00 0.00 0.00 30 1003.3
20260503234034 32 278 6.4 9.7 0.00 0.00 0.00 30 1004.1
20260503233023 33 237 6.4 11.3 0.00 0.00 0.00 30 1004.3
20260503232144 33 287 8.0 12.9 0.00 0.00 0.00 30 1004.3
20260503231021 32 257 6.4 12.9 0.00 0.00 0.00 31 1004.3
20260503230028 32 267 8.0 14.5 0.00 0.00 0.00 31 1004.3
20260503225037 32 264 6.4 9.7 0.00 0.00 0.00 34 1004.3
20260503224025 32 282 6.4 11.3 0.00 0.00 0.00 33 1005.1
20260503223034 33 214 8.0 11.3 0.00 0.00 0.00 35 1005.3
20260503222025 32 282 4.8 9.7 0.00 0.00 0.00 37 1005.3
20260503221031 32 274 8.0 9.7 0.00 0.00 0.00 37 1005.3
20260503220039 32 265 8.0 12.9 0.00 0.00 0.00 38 1005.3
20260503215028 31 301 6.4 9.7 0.00 0.00 0.00 40 1005.3
20260503214036 31 260 8.0 11.3 0.00 0.00 0.00 40 1006.1
20260503213025 31 257 6.4 9.7 0.00 0.00 0.00 41 1006.3
20260503212028 30 260 9.7 11.3 0.00 0.00 0.00 42 1006.3
20260503211043 30 276 6.4 11.3 0.00 0.00 0.00 42 1006.3
20260503210050 30 278 8.0 11.3 0.00 0.00 0.00 45 1006.3
20260503205020 30 262 9.7 12.9 0.00 0.00 0.00 44 1006.3
20260503204028 29 281 6.4 9.7 0.00 0.00 0.00 46 1006.3
20260503203037 29 255 6.4 9.7 0.00 0.00 0.00 47 1006.3